Date,TemperatureHighF,TemperatureAvgF,TemperatureLowF,DewpointHighF,DewpointAvgF,DewpointLowF,HumidityHigh,HumidityAvg,HumidityLow,PressureMaxIn,PressureMinIn,WindSpeedMaxMPH,WindSpeedAvgMPH,GustSpeedMaxMPH,PrecipitationSumIn
2014-1-1,69.5,50.9,36.1,33.5,28.7,25.3,74,46,22,30.23,30.10,2,0,4,0.00
2014-1-2,56.9,45.2,35.5,29.8,27.0,24.5,69,50,32,30.18,30.05,1,0,1,0.00
2014-1-3,69.7,51.7,34.7,34.0,29.5,25.2,70,45,24,30.09,29.94,2,0,4,0.00
2014-1-4,73.1,51.9,37.7,32.3,29.6,25.9,68,46,19,30.05,29.96,3,0,6,0.00
2014-1-5,71.8,48.3,35.0,35.3,31.4,28.0,77,55,26,30.23,30.09,1,0,2,0.00
2014-1-6,71.8,49.2,34.2,33.0,26.1,20.9,77,46,16,30.28,30.16,1,0,2,0.00
2014-1-7,65.0,49.0,41.0,39.5,28.2,22.0,78,45,28,30.20,30.11,2,0,5,0.00
2014-1-8,61.4,49.4,41.5,45.0,40.6,32.1,91,73,46,30.24,30.11,5,2,7,0.00
2014-1-9,61.6,48.0,41.4,46.4,42.6,40.1,96,83,54,30.24,30.12,7,2,12,0.00
2014-1-10,67.5,51.1,39.1,43.4,39.8,36.0,93,68,36,30.30,30.16,3,1,5,0.00
2014-1-11,67.1,51.7,36.7,48.2,41.3,32.5,92,70,39,30.26,30.12,8,2,10,0.00
2014-1-12,48.7,43.6,37.1,46.3,40.9,35.5,94,90,87,30.26,30.22,5,2,10,0.00
2014-1-13,66.6,48.3,33.7,35.9,31.7,27.1,81,56,27,30.48,30.34,4,1,0,0.00
2014-1-14,71.2,51.7,36.2,36.6,32.5,28.3,76,51,24,30.47,30.33,4,1,0,0.00
2014-1-15,78.0,53.3,32.2,33.6,27.8,18.7,76,43,11,30.37,30.20,3,0,0,0.00
2014-1-16,80.8,55.3,35.3,30.7,25.9,19.0,63,37,10,30.26,30.11,2,0,0,0.00
2014-1-17,83.0,55.8,36.7,28.7,21.0,14.8,49,29,9,30.22,30.08,1,0,0,0.00
2014-1-18,77.0,51.1,36.7,28.0,22.6,20.1,52,36,13,30.19,30.05,2,0,4,0.00
2014-1-19,74.4,50.7,32.7,27.9,21.3,13.4,64,36,14,30.17,30.05,2,0,3,0.00
2014-1-20,56.6,40.2,34.3,23.2,18.6,16.5,49,42,27,30.22,30.13,1,0,2,0.00
2014-1-21,72.4,52.9,34.5,32.1,28.5,24.9,70,43,17,30.25,30.13,3,0,4,0.00
2014-1-22,71.8,55.8,42.9,31.2,25.3,12.8,55,34,11,30.18,29.94,3,0,5,0.00
2014-1-23,67.4,54.7,35.1,46.2,37.6,19.8,86,56,26,30.05,29.87,8,2,15,0.00
2014-1-24,67.9,51.3,40.9,48.5,41.6,37.3,89,72,33,30.26,30.05,8,1,12,0.00
2014-1-25,73.4,56.5,44.7,45.8,39.8,26.3,83,61,18,30.25,30.12,2,0,4,0.00
2014-1-26,68.9,53.8,43.3,42.2,31.9,26.1,65,44,25,30.15,30.02,8,1,10,0.00
2014-1-27,69.8,52.4,35.3,41.0,35.4,31.8,92,57,25,30.19,30.07,6,1,10,0.00
2014-1-28,51.2,44.7,40.4,43.3,39.4,33.4,92,82,68,30.24,30.18,3,0,4,0.00
2014-1-29,63.2,50.0,43.0,53.3,46.6,41.1,95,88,69,30.21,30.16,4,1,5,0.00
2014-1-30,64.4,54.0,45.4,52.8,46.3,39.5,95,76,53,29.95,29.85,9,2,17,0.00
2014-1-31,60.5,49.0,41.6,41.2,36.7,21.6,86,66,23,30.07,29.91,7,2,11,0.00
2014-2-1,60.5,43.8,29.5,37.6,29.4,22.5,92,61,29,30.18,30.07,4,1,5,0.00
2014-2-2,48.7,41.9,33.4,44.8,34.1,22.2,95,75,50,30.13,29.91,9,2,11,0.87
2014-2-3,54.4,44.3,35.7,45.5,39.4,34.4,97,84,57,30.08,29.96,6,2,13,0.01
2014-2-4,53.6,43.4,32.8,40.9,35.4,31.3,95,75,47,30.17,30.07,4,1,5,0.00
2014-2-5,56.9,44.2,32.1,40.5,35.6,30.5,95,74,46,30.24,30.10,5,1,6,0.00
2014-2-6,59.2,48.6,43.3,55.7,45.2,37.2,95,88,70,30.11,29.89,7,1,10,0.32
2014-2-7,55.4,49.1,45.7,48.8,46.2,44.2,96,90,74,30.17,30.06,6,1,8,0.00
2014-2-8,57.4,52.8,49.6,55.3,50.9,46.8,97,93,88,30.27,30.18,7,2,9,0.04
2014-2-9,57.4,53.1,48.9,52.2,51.0,47.8,97,93,78,30.24,30.15,5,1,6,0.01
2014-2-10,66.5,55.6,48.8,53.9,50.5,46.6,97,84,58,30.25,30.14,7,3,11,0.01
2014-2-11,66.6,53.4,45.6,51.6,46.6,42.8,97,81,44,30.24,30.13,3,2,6,0.00
2014-2-12,72.5,56.1,41.1,50.0,43.2,32.9,97,68,25,30.26,30.13,3,1,5,0.00
2014-2-13,75.6,55.0,43.8,49.7,44.5,40.5,90,70,31,30.20,30.07,3,0,5,0.00
2014-2-14,82.2,58.6,41.0,49.9,43.9,37.0,94,64,21,30.18,30.02,2,0,4,0.00
2014-2-15,53.7,45.7,40.4,47.8,42.9,38.8,95,90,80,30.06,30.00,1,0,2,0.00
2014-2-16,69.6,49.4,46.5,51.9,47.1,44.6,97,92,53,30.17,30.06,3,1,5,0.00
2014-2-17,62.2,48.7,40.9,44.9,41.9,38.8,94,78,52,30.14,30.05,4,1,5,0.00
2014-2-18,60.3,47.6,38.3,40.7,37.8,34.9,93,71,39,30.17,30.07,2,0,3,0.00
2014-2-19,69.4,54.8,44.3,47.8,43.3,36.4,91,67,41,30.16,30.03,6,3,9,0.00
2014-2-20,68.9,54.3,37.7,41.9,36.5,31.7,92,56,29,30.19,30.07,4,1,7,0.00
2014-2-21,73.7,56.1,43.0,39.5,36.2,34.3,76,52,24,30.11,29.94,4,1,5,0.00
2014-2-22,75.6,57.0,39.3,41.5,37.4,32.7,77,52,24,30.00,29.88,3,1,6,0.00
2014-2-23,78.1,56.7,39.5,43.2,39.1,31.5,92,57,19,30.03,29.90,5,1,8,0.00
2014-2-24,78.4,56.6,39.7,43.5,38.2,35.6,88,55,23,30.01,29.88,8,2,10,0.00
2014-2-25,69.8,51.3,37.3,46.6,38.7,32.3,85,64,36,30.00,29.92,11,2,16,0.00
2014-2-26,58.8,52.3,51.0,52.1,47.3,46.0,94,83,73,30.02,29.83,14,3,23,0.32
2014-2-27,65.1,56.3,48.5,51.0,46.7,42.2,95,72,45,29.97,29.65,11,3,15,0.16
2014-2-28,56.3,53.1,50.5,54.6,50.5,48.0,97,91,86,29.65,29.47,17,6,28,1.39
2014-3-1,56.8,52.4,50.0,53.5,50.0,47.5,94,91,85,29.82,29.56,18,6,14,1.71
2014-3-2,54.1,50.7,44.6,51.5,49.0,43.5,97,94,90,30.18,29.89,8,3,12,0.12
2014-3-3,63.5,52.2,43.3,54.9,48.5,42.2,98,88,69,30.20,30.07,3,0,5,0.01
2014-3-4,64.4,56.2,51.9,54.8,51.3,46.6,96,84,69,30.13,30.03,4,0,3,0.00
2014-3-5,71.4,58.1,50.0,56.9,51.8,49.2,98,81,57,30.13,30.03,5,1,6,0.00
2014-3-6,71.7,59.7,51.5,57.5,48.2,36.1,92,70,28,30.14,30.04,7,3,11,0.00
2014-3-7,67.9,56.3,45.2,49.2,45.9,42.8,92,71,43,30.15,30.05,7,2,9,0.00
2014-3-8,76.8,56.6,41.9,50.6,42.9,28.0,95,65,18,30.20,30.11,7,1,9,0.00
2014-3-9,73.2,51.9,46.3,44.6,42.7,30.9,85,73,21,30.20,30.11,5,0,7,0.00
2014-3-10,66.9,49.6,43.0,51.6,38.4,31.7,85,66,47,30.16,30.08,6,1,9,0.00
2014-3-11,53.2,47.3,41.7,45.5,40.4,36.1,83,77,70,30.13,30.08,3,1,0,0.00
2014-3-12,72.2,54.1,40.4,41.2,34.9,26.7,83,54,19,30.06,29.96,9,1,6,0.00
2014-3-13,79.0,60.3,43.5,40.2,32.1,22.5,69,38,14,30.06,29.94,5,1,0,0.00
2014-3-14,75.8,56.9,38.7,44.8,36.5,26.3,82,52,16,30.21,30.06,4,1,0,0.00
2014-3-15,79.8,61.8,44.8,51.3,43.7,39.6,87,56,28,30.30,30.19,4,1,0,0.00
2014-3-16,87.1,63.9,47.1,49.8,41.9,28.9,81,50,15,30.32,30.12,4,1,0,0.00
2014-3-17,71.6,57.1,43.2,46.5,42.8,34.9,85,61,37,30.16,29.88,8,3,11,0.00
2014-3-18,73.1,52.0,40.5,44.1,37.7,30.6,93,65,22,29.98,29.86,3,0,7,0.00
2014-3-19,65.9,47.5,44.4,33.2,32.5,27.0,64,56,23,30.03,29.98,2,0,2,0.00
2014-3-20,79.2,66.0,53.5,43.3,36.6,27.5,59,36,18,30.05,29.90,6,2,9,0.00
2014-3-21,66.4,53.3,43.8,50.0,42.6,38.3,86,68,48,30.01,29.91,12,3,16,0.00
2014-3-22,74.0,52.6,40.8,50.4,43.3,38.8,94,74,32,30.12,30.01,7,1,9,0.00
2014-3-23,77.2,56.2,43.6,50.5,43.3,39.4,96,68,27,30.18,30.02,4,1,6,0.00
2014-3-24,84.2,60.4,40.2,48.1,41.3,33.4,95,56,21,30.14,29.97,4,1,5,0.00
2014-3-25,73.3,56.2,41.6,49.7,41.4,34.0,81,60,35,30.03,29.84,10,2,13,0.00
2014-3-26,59.2,51.9,44.2,51.7,46.1,41.3,92,81,66,30.02,29.87,9,2,11,0.07
2014-3-27,66.0,52.2,40.0,47.7,42.2,38.1,96,72,37,30.15,30.01,5,1,8,0.01
2014-3-28,73.8,55.3,40.0,48.6,43.1,37.9,94,68,32,30.23,30.09,4,1,6,0.00
2014-3-29,70.2,54.7,42.9,52.1,47.0,41.0,94,77,47,30.17,29.98,7,1,11,0.21
2014-3-30,63.4,51.3,44.6,48.4,44.8,39.0,96,81,42,30.14,30.03,5,1,10,0.11
2014-3-31,56.2,47.1,40.2,46.5,43.1,38.9,95,87,58,30.04,29.88,10,2,20,0.32
2014-4-1,55.1,44.6,36.5,47.1,40.8,35.2,96,87,62,30.04,29.90,7,2,8,0.32
2014-4-2,60.0,46.5,39.9,46.1,41.8,37.9,96,84,59,30.11,29.94,5,1,8,0.12
2014-4-3,63.5,50.3,37.5,48.1,41.8,36.2,96,75,40,30.15,30.05,8,2,8,0.00
2014-4-4,57.8,46.7,38.1,50.8,42.1,35.3,95,84,71,30.08,29.99,2,0,6,0.12
2014-4-5,46.5,41.9,39.3,44.4,39.7,37.7,95,92,85,30.12,30.04,2,0,3,0.01
2014-4-6,76.1,57.8,42.0,52.3,46.4,39.6,94,69,40,30.23,30.08,3,1,7,0.00
2014-4-7,69.4,52.8,48.4,48.8,46.4,40.9,89,80,38,30.14,30.06,1,0,2,0.00
2014-4-8,82.4,64.1,46.6,53.7,43.4,33.1,85,53,20,30.12,30.02,8,2,9,0.00
2014-4-9,86.3,61.5,43.2,49.8,40.7,32.0,87,55,15,30.08,29.94,7,1,10,0.00
2014-4-10,85.8,64.0,45.2,53.7,45.6,39.1,88,56,24,30.01,29.86,7,1,9,0.00
2014-4-11,76.7,60.9,47.8,54.2,47.1,41.9,84,63,33,29.94,29.82,9,2,12,0.00
2014-4-12,64.6,53.1,47.1,50.7,46.5,42.8,91,79,58,29.96,29.85,10,2,13,0.00
2014-4-13,73.7,55.7,46.9,56.5,48.9,44.1,93,80,53,30.05,29.93,6,1,9,0.00
2014-4-14,84.6,60.3,46.7,56.7,47.1,33.1,97,71,17,30.10,30.01,7,1,10,0.00
2014-4-15,85.7,58.6,45.1,54.3,45.7,40.0,96,69,20,30.05,29.84,6,1,11,0.00
2014-4-16,78.5,54.2,44.4,49.2,44.9,41.7,95,74,33,29.91,29.76,3,1,6,0.00
2014-4-17,69.2,53.5,49.2,51.8,44.0,42.4,81,71,53,29.84,29.79,6,0,9,0.00
2014-4-18,70.3,53.9,46.5,54.9,47.9,44.0,94,81,56,29.97,29.84,9,2,12,0.00
2014-4-19,48.4,46.3,45.0,46.3,44.3,42.8,95,93,88,30.05,29.95,1,0,3,0.00
2014-4-20,79.9,51.3,45.2,51.6,46.4,43.3,95,86,30,30.12,30.00,3,0,5,0.00
2014-4-21,83.1,63.9,47.4,50.4,43.0,30.1,79,49,28,30.06,29.90,6,2,10,0.00
2014-4-22,69.4,55.5,44.3,44.7,34.9,25.9,82,49,20,30.07,29.96,9,4,11,0.00
2014-4-23,73.0,56.5,43.2,40.7,36.7,32.8,74,51,26,30.11,30.00,6,3,11,0.00
2014-4-24,80.7,60.7,45.2,48.0,43.8,39.6,83,58,27,30.10,29.92,7,2,10,0.00
2014-4-25,61.9,53.2,44.2,53.5,46.8,39.4,89,79,60,29.95,29.80,6,2,10,0.07
2014-4-26,66.1,52.0,40.4,44.7,38.6,30.9,92,65,28,30.09,29.85,6,3,11,0.00
2014-4-27,73.7,55.4,39.6,50.7,42.1,30.9,90,64,23,30.11,29.99,7,2,9,0.00
2014-4-28,72.3,53.0,45.6,44.2,41.6,40.1,83,68,32,30.17,30.10,5,3,8,0.00
2014-4-29,89.6,68.8,47.9,44.8,39.5,31.8,78,41,13,30.19,30.01,4,1,9,0.00
2014-4-30,95.0,73.7,51.1,46.2,37.8,23.2,70,34,8,30.09,29.95,4,1,12,0.00
2014-5-1,82.9,64.4,51.8,46.1,40.1,31.2,54,43,16,30.09,30.00,1,0,3,0.00
2014-5-2,95.9,63.9,51.3,41.8,36.0,25.1,54,37,8,30.06,29.91,3,1,5,0.00
2014-5-3,78.7,57.7,51.9,49.2,42.9,38.3,67,58,30,29.99,29.90,3,1,8,0.00
2014-5-4,71.8,51.4,45.2,46.2,42.7,39.8,85,73,40,30.02,29.97,5,1,13,0.00
2014-5-5,73.6,59.7,50.3,50.6,46.8,42.6,85,65,41,30.01,29.87,11,3,15,0.00
2014-5-6,69.5,52.7,40.7,44.1,40.0,35.6,84,65,31,29.95,29.84,8,2,14,0.00
2014-5-7,65.4,54.0,40.8,46.4,43.2,38.7,93,68,47,30.02,29.92,11,3,10,0.00
2014-5-8,72.6,55.7,42.2,50.4,43.9,35.9,90,68,29,30.10,30.01,9,1,12,0.00
2014-5-9,79.7,59.7,48.9,54.5,46.6,34.2,93,68,20,30.12,30.00,10,2,13,0.00
2014-5-10,77.1,58.0,45.1,43.3,37.8,21.4,84,53,14,30.08,29.92,9,5,15,0.00
2014-5-11,80.6,55.8,48.7,43.2,39.7,28.7,75,61,15,30.01,29.94,6,4,15,0.00
2014-5-12,88.4,67.7,48.0,39.9,32.9,25.5,58,32,12,30.09,29.98,10,2,16,0.00
2014-5-13,82.9,59.6,51.9,36.4,33.8,24.9,52,39,14,30.13,30.06,5,0,7,0.00
2014-5-14,99.4,76.6,51.2,38.0,30.8,18.7,50,24,6,30.13,29.97,5,1,9,0.00
2014-5-15,103.4,80.3,58.2,42.4,34.1,21.8,43,22,6,30.07,29.92,7,1,12,0.00
2014-5-16,100.3,74.8,57.4,39.6,33.9,25.7,42,25,8,30.02,29.87,8,2,12,0.00
2014-5-17,70.4,57.7,50.8,48.3,43.8,39.3,82,62,37,29.97,29.89,5,1,9,0.00
2014-5-18,62.0,55.1,49.0,45.1,42.9,41.3,78,64,53,29.96,29.91,5,1,9,0.00
2014-5-19,76.1,59.5,44.7,46.1,42.9,35.6,87,57,27,29.96,29.85,11,3,17,0.00
2014-5-20,68.4,59.6,47.7,48.0,45.6,40.9,83,62,38,30.01,29.93,11,2,15,0.00
2014-5-21,70.4,52.4,48.4,51.9,46.9,44.7,89,82,51,30.00,29.91,9,0,10,0.00
2014-5-22,52.4,50.4,47.9,49.3,47.7,45.4,93,90,87,29.99,29.94,0,0,1,0.00
2014-5-23,86.8,64.3,49.4,56.0,50.9,45.4,91,66,34,30.04,29.88,9,2,0,0.00
2014-5-24,86.1,65.4,50.9,55.5,51.3,47.1,93,65,35,29.99,29.85,9,2,11,0.00
2014-5-25,97.9,71.8,47.6,52.1,47.5,41.4,91,52,15,29.98,29.82,5,2,12,0.00
2014-5-26,99.2,75.6,56.2,46.2,41.4,23.0,62,36,7,29.96,29.85,6,2,8,0.00
2014-5-27,96.0,68.6,53.1,46.3,37.7,13.6,65,39,5,30.00,29.85,6,3,10,0.00
2014-5-28,77.2,59.3,50.8,40.5,37.7,29.0,65,48,17,29.97,29.92,6,3,10,0.00
2014-5-29,86.9,66.3,49.0,38.9,33.6,20.9,63,35,9,29.91,29.83,8,2,10,0.00
2014-5-30,87.7,62.2,46.7,44.0,37.5,28.2,69,43,12,29.92,29.81,11,2,14,0.00
2014-5-31,85.9,48.6,45.2,46.0,44.0,41.7,92,85,24,29.95,29.88,6,1,7,0.00
2014-6-1,90.4,56.5,44.4,47.1,40.7,34.6,82,62,14,29.92,29.77,9,1,10,0.00
2014-6-2,74.0,57.4,44.0,50.0,44.6,38.7,91,65,32,29.92,29.82,13,3,16,0.00
2014-6-3,79.8,63.8,48.8,51.4,46.6,37.9,89,60,25,29.95,29.80,10,3,14,0.00
2014-6-4,95.6,75.7,44.3,47.9,43.7,37.7,89,39,14,29.90,29.75,6,2,7,0.00
2014-6-5,89.4,63.0,51.2,51.9,45.2,41.2,76,55,19,29.85,29.75,5,0,8,0.00
2014-6-6,68.1,53.8,48.3,50.6,44.9,41.2,85,72,53,29.83,29.80,1,0,2,0.00
2014-6-7,94.3,57.7,48.9,52.2,46.6,40.7,92,73,16,29.84,29.72,7,1,8,0.00
2014-6-8,106.5,73.8,51.6,52.3,44.0,30.6,78,46,8,29.82,29.67,7,1,9,0.00
2014-6-9,99.1,75.5,59.8,53.2,48.6,43.4,63,41,18,29.74,29.65,12,2,16,0.00
2014-6-10,84.2,65.9,53.1,53.2,50.0,43.8,84,60,30,29.84,29.71,13,4,17,0.00
2014-6-11,66.1,55.8,54.5,52.9,51.2,50.7,89,85,59,29.88,29.82,7,2,8,0.00
2014-6-12,82.6,63.0,49.9,54.9,51.5,47.4,93,71,35,29.95,29.86,10,2,14,0.00
2014-6-13,68.6,50.3,46.5,47.9,45.2,43.3,92,83,40,29.96,29.93,3,0,12,0.00
2014-6-14,93.2,70.6,51.2,47.5,40.4,28.9,77,40,11,29.91,29.76,8,2,10,0.00
2014-6-15,74.1,62.4,50.3,49.8,45.5,37.8,82,55,39,29.88,29.76,11,4,13,0.00
2014-6-16,72.2,55.8,49.9,50.7,47.4,45.6,89,76,41,29.94,29.85,11,2,14,0.00
2014-6-17,75.1,59.8,44.1,49.9,45.1,40.8,90,62,36,29.94,29.86,10,3,14,0.00
2014-6-18,88.1,63.0,44.5,43.5,38.7,33.9,80,49,16,29.94,29.86,6,1,9,0.00
2014-6-19,97.4,68.5,52.0,41.0,37.2,25.4,58,36,8,29.96,29.85,6,1,7,0.00
2014-6-20,99.0,69.1,50.3,47.2,37.3,4.6,71,41,4,29.95,29.82,6,2,9,0.00
2014-6-21,67.5,59.7,55.6,43.6,41.4,39.8,58,51,42,29.88,29.86,2,1,5,0.00
2014-6-22,94.2,67.4,46.8,48.9,42.4,26.0,90,50,10,29.92,29.82,8,2,12,0.00
2014-6-23,91.8,64.9,48.9,51.4,47.4,41.1,92,61,18,29.94,29.84,7,1,10,0.00
2014-6-24,93.1,58.2,53.7,48.3,46.8,45.3,75,67,21,29.97,29.88,8,1,8,0.00
2014-6-25,93.7,69.9,51.5,53.7,49.5,38.5,92,57,15,29.96,29.83,6,3,9,0.00
2014-6-26,85.9,64.9,55.3,56.6,51.3,45.7,89,66,30,29.95,29.83,6,2,10,0.00
2014-6-27,94.3,69.8,52.5,56.8,50.9,43.2,91,60,18,29.94,29.82,7,2,13,0.00
2014-6-28,96.1,73.3,58.8,57.5,51.1,38.0,89,54,14,29.91,29.79,7,3,10,0.00
2014-6-29,103.3,74.7,56.6,49.1,44.0,30.2,70,41,9,29.91,29.75,8,2,5,0.00
2014-6-30,95.0,73.7,59.1,55.2,48.3,42.4,70,43,22,29.82,29.72,10,2,14,0.00
2014-7-1,89.4,67.3,54.4,59.1,51.9,43.0,86,64,20,29.82,29.74,10,2,13,0.00
2014-7-2,83.0,59.3,52.2,53.6,50.6,48.6,93,75,33,29.89,29.80,8,0,11,0.00
2014-7-3,98.6,55.7,52.8,54.0,50.7,41.0,91,85,14,29.93,29.82,2,0,3,0.00
2014-7-4,94.1,74.0,54.2,51.8,45.0,36.5,74,41,17,29.97,29.87,12,4,17,0.00
2014-7-5,98.9,68.2,55.4,47.1,39.4,30.2,63,39,16,30.03,29.94,4,0,8,0.00
2014-7-6,104.7,78.8,60.0,45.5,35.8,28.4,48,24,8,30.01,29.83,9,1,9,0.00
2014-7-7,103.8,79.3,60.3,49.1,40.9,21.3,52,30,6,29.89,29.75,8,1,11,0.00
2014-7-8,80.3,68.4,60.9,51.9,48.6,46.6,66,50,31,29.91,29.83,6,1,6,0.00
2014-7-9,66.3,57.4,54.8,55.1,50.4,47.4,85,78,62,29.95,29.89,5,0,5,0.00
2014-7-10,82.5,69.2,55.6,57.9,54.2,48.1,91,62,31,29.95,29.86,12,6,0,0.00
2014-7-11,83.1,66.6,52.4,57.5,51.8,46.5,94,64,30,30.01,29.92,11,3,0,0.00
2014-7-12,88.5,64.2,54.7,55.8,52.2,47.1,90,69,24,30.05,29.91,6,2,7,0.00
2014-7-13,94.8,69.1,56.8,53.0,50.7,48.3,79,57,23,29.99,29.80,5,2,6,0.00
2014-7-14,93.5,75.3,65.2,61.8,56.4,51.5,66,53,28,29.92,29.83,8,1,12,0.00
2014-7-15,86.5,70.9,62.6,62.4,58.8,55.4,88,69,37,29.97,29.91,14,3,18,0.00
2014-7-16,78.8,65.5,58.7,60.8,57.4,53.8,91,76,52,30.02,29.93,12,4,20,0.00
2014-7-17,79.5,66.8,55.0,57.9,54.7,51.8,91,68,43,30.01,29.91,11,3,14,0.00
2014-7-18,82.5,63.6,54.3,58.6,54.8,51.1,92,76,43,30.02,29.90,10,1,17,0.00
2014-7-19,85.9,68.6,55.8,59.7,55.0,50.2,91,65,36,29.96,29.86,10,2,17,0.00
2014-7-20,74.1,63.9,59.6,58.9,56.1,53.9,83,76,56,29.97,29.89,5,0,5,0.00
2014-7-21,80.4,65.7,58.7,60.1,57.2,55.2,89,76,45,30.04,29.97,8,2,13,0.00
2014-7-22,84.9,67.5,56.7,59.4,54.1,47.5,89,66,29,30.08,30.00,10,2,13,0.00
2014-7-23,94.6,65.4,52.8,56.8,54.0,49.7,94,71,22,30.12,29.92,6,2,8,0.00
2014-7-24,66.9,63.0,59.7,56.4,54.6,53.2,81,74,67,29.99,29.96,4,2,5,0.00
2014-7-25,98.9,75.5,61.3,55.2,51.7,47.5,67,46,21,29.88,29.78,12,2,15,0.00
2014-7-26,91.4,67.6,59.9,55.0,51.0,47.1,69,56,29,29.93,29.87,5,0,5,0.00
2014-7-27,102.7,77.1,60.3,54.9,49.7,41.8,68,42,14,29.97,29.86,13,3,16,0.00
2014-7-28,86.6,72.6,64.1,59.7,52.2,41.3,83,52,22,30.02,29.95,11,1,15,0.01
2014-7-29,102.9,81.3,61.1,58.3,51.0,45.8,79,40,16,30.03,29.88,8,2,12,0.00
2014-7-30,104.4,82.9,63.4,55.0,49.4,43.8,58,34,19,29.97,29.84,8,2,12,0.00
2014-7-31,104.3,76.2,61.4,56.5,47.4,38.2,69,41,13,29.93,29.78,5,1,8,0.00
2014-8-1,105.0,75.0,60.2,55.3,49.4,32.5,64,45,10,29.88,29.75,6,1,9,0.00
2014-8-2,105.1,75.5,57.0,55.7,49.2,35.5,82,49,10,29.91,29.80,10,2,11,0.00
2014-8-3,83.3,67.6,58.6,57.1,52.6,48.6,82,61,31,29.94,29.86,9,1,11,0.00
2014-8-4,77.9,61.2,52.8,55.1,51.1,47.8,91,71,35,29.98,29.90,12,2,20,0.00
2014-8-5,90.8,70.3,54.3,57.4,51.7,42.5,92,59,19,30.04,29.92,10,3,12,0.00
2014-8-6,91.8,71.9,55.4,59.6,55.7,50.6,86,60,34,30.02,29.89,7,1,8,0.00
2014-8-7,93.7,72.9,56.9,61.6,56.5,52.8,93,61,29,29.97,29.81,9,2,13,0.00
2014-8-8,95.0,72.4,55.3,59.1,53.5,49.7,85,56,24,29.92,29.78,8,2,10,0.00
2014-8-9,94.0,70.9,53.3,57.1,51.3,35.7,86,57,15,29.95,29.83,7,2,10,0.00
2014-8-10,90.9,69.1,50.5,56.2,49.3,38.6,95,58,18,29.98,29.86,9,2,11,0.00
2014-8-11,92.8,68.2,51.5,54.4,49.6,39.1,89,58,17,29.95,29.86,10,2,17,0.00
2014-8-12,87.1,70.8,54.3,59.6,53.6,47.2,84,58,34,29.96,29.84,11,3,14,0.00
2014-8-13,90.3,71.0,54.9,62.0,56.1,51.6,92,63,37,29.97,29.85,10,2,12,0.00
2014-8-14,76.4,61.7,58.0,60.6,57.0,54.3,92,85,58,29.95,29.92,1,0,4,0.00
2014-8-15,92.1,68.9,51.0,55.1,43.3,29.6,88,50,13,29.98,29.91,12,3,22,0.00
2014-8-16,95.7,68.2,50.1,52.6,42.8,20.3,90,51,9,30.03,29.90,9,2,12,0.00
2014-8-17,93.3,74.2,60.7,51.5,47.5,40.8,65,42,19,30.00,29.85,3,1,5,0.00
2014-8-18,96.8,67.5,49.3,54.7,49.8,44.8,87,61,18,29.88,29.74,9,1,11,0.00
2014-8-19,74.0,61.8,55.1,58.3,54.8,50.9,91,79,55,29.88,29.78,11,4,18,0.00
2014-8-20,82.9,62.3,53.8,58.3,53.2,49.2,92,75,37,29.96,29.85,8,1,16,0.00
2014-8-21,89.7,63.1,51.3,57.0,52.0,48.9,93,70,28,29.95,29.85,6,0,6,0.00
2014-8-22,91.2,64.0,54.3,54.8,50.9,47.9,80,65,26,29.94,29.89,2,0,5,0.00
2014-8-23,82.2,64.2,52.0,56.1,51.3,47.8,92,67,34,29.93,29.83,9,2,14,0.00
2014-8-24,80.4,64.2,52.0,56.1,52.2,48.7,92,68,38,29.90,29.77,11,4,15,0.00
2014-8-25,73.7,56.4,51.2,54.2,51.1,48.4,94,84,48,29.90,29.86,5,1,9,0.00
2014-8-26,87.1,60.3,49.1,54.6,49.7,44.1,94,72,28,30.01,29.93,6,1,9,0.00
2014-8-27,88.9,55.4,50.8,52.4,48.3,43.9,90,78,21,30.05,29.97,8,0,8,0.00
2014-8-28,92.8,58.0,48.5,52.3,45.7,15.2,92,69,6,30.05,29.94,6,0,8,0.00
2014-8-29,57.7,56.8,56.5,54.8,54.5,53.8,93,92,87,29.94,29.91,2,0,2,0.00
2014-8-30,103.6,76.6,57.4,54.6,45.0,7.5,86,45,3,29.88,29.76,6,2,8,0.00
2014-8-31,87.7,66.5,59.3,53.8,50.5,34.3,76,58,15,29.89,29.83,4,2,7,0.00
2014-9-1,98.4,75.6,54.7,53.6,48.8,43.1,79,46,18,29.84,29.70,7,2,9,0.00
2014-9-2,93.3,71.9,56.5,56.4,52.4,48.1,83,54,27,29.84,29.69,9,2,11,0.00
2014-9-3,82.1,65.9,52.8,56.6,52.7,48.5,93,66,38,29.79,29.65,9,3,12,0.00
2014-9-4,83.7,59.6,51.2,57.2,51.5,48.4,94,78,30,29.77,29.72,8,1,10,0.00
2014-9-5,87.1,65.8,51.6,57.5,50.0,39.1,95,66,20,29.89,29.80,9,2,11,0.00
2014-9-6,93.8,69.4,49.7,54.3,46.1,28.0,93,54,10,29.95,29.81,8,2,10,0.00
2014-9-7,96.8,60.5,49.2,54.4,48.0,24.5,90,71,8,29.88,29.77,9,1,9,0.00
2014-9-8,87.0,67.7,56.8,55.3,48.6,34.0,80,55,22,29.92,29.79,11,2,15,0.00
2014-9-9,90.6,59.7,47.7,54.3,48.1,36.6,95,73,15,29.99,29.89,3,1,5,0.00
2014-9-10,101.9,70.7,51.9,48.5,41.2,33.8,66,39,10,29.94,29.77,6,1,7,0.00
2014-9-11,103.8,68.1,55.5,51.1,43.9,36.1,67,46,10,29.89,29.75,4,0,7,0.00
2014-9-16,102.3,85.5,65.7,53.0,45.5,30.2,59,30,10,29.88,29.73,4,2,7,0.00
2014-9-17,95.7,71.5,56.0,56.4,50.4,46.0,75,51,22,29.81,29.73,9,1,14,0.00
2014-9-18,80.8,67.3,58.4,63.5,55.8,48.4,90,68,44,29.87,29.78,9,2,13,0.00
2014-9-19,87.7,69.0,57.0,60.3,57.5,54.6,92,71,34,29.92,29.78,6,2,8,0.00
2014-9-20,82.3,60.8,55.2,60.3,55.7,52.5,95,84,47,29.94,29.86,2,0,4,0.00
2014-9-21,82.4,65.8,57.0,60.5,56.7,53.2,90,75,45,30.01,29.89,8,1,10,0.00
2014-9-22,92.2,67.1,58.2,60.6,56.6,52.9,92,75,27,30.02,29.87,7,1,7,0.00
2014-9-23,90.9,77.3,59.2,58.1,52.2,39.3,83,46,18,29.98,29.86,8,3,11,0.00
2014-9-24,90.3,68.9,59.2,59.7,54.2,26.0,91,69,10,29.96,29.83,7,2,13,0.00
2014-9-25,79.4,66.9,59.5,63.2,57.3,47.0,92,73,49,29.98,29.90,4,2,5,0.00
2014-9-26,59.4,56.8,55.5,54.1,52.5,49.7,90,86,72,29.97,29.94,3,2,6,0.00
2014-9-27,77.5,74.3,70.0,53.1,49.9,45.5,52,43,33,29.90,29.81,5,3,8,0.00
2014-9-28,68.4,54.1,49.2,53.5,50.1,47.0,95,87,55,29.94,29.85,5,0,6,0.00
2014-9-29,81.6,61.9,51.8,56.6,52.1,49.2,94,74,36,30.02,29.89,4,1,6,0.00
2014-9-30,86.5,66.1,51.6,56.5,51.3,44.7,96,65,24,29.96,29.76,5,2,6,0.00
2014-10-1,90.5,68.3,50.7,53.2,47.4,41.8,90,54,20,29.92,29.80,5,1,6,0.00
2014-10-2,95.7,70.2,53.4,44.7,40.3,33.7,61,38,12,30.03,29.92,4,0,11,0.00
2014-10-3,98.3,70.8,56.5,45.7,31.4,29.3,47,21,10,30.07,29.95,4,1,6,0.00
2014-10-4,95.2,67.6,56.8,44.2,31.8,29.1,45,22,11,30.03,29.88,2,0,3,0.00
2014-10-5,102.3,71.7,59.9,43.5,31.5,24.6,38,19,7,29.95,29.81,3,0,5,0.00
2014-10-6,100.9,63.3,57.6,41.0,25.3,16.8,41,17,5,29.91,29.76,4,1,6,0.00
2014-10-7,98.7,80.7,56.2,47.3,37.5,22.5,56,26,7,29.91,29.75,6,1,7,0.00
2014-10-8,95.7,39.5,52.9,48.7,28.3,34.1,73,36,12,29.87,29.77,3,0,6,0.00
2014-10-9,93.3,60.1,54.5,45.3,29.7,30.3,70,23,11,29.95,29.84,7,2,10,0.00
2014-10-10,87.7,70.9,48.5,51.8,43.1,38.2,88,39,18,30.02,29.90,5,2,10,0.00
2014-10-11,59.2,36.0,49.9,50.7,31.9,46.2,93,53,71,30.04,29.98,2,0,1,0.00
2014-10-12,92.7,78.9,55.6,49.7,36.7,30.9,77,21,13,29.94,29.84,5,1,5,0.00
2014-10-13,87.9,46.4,54.6,53.9,29.2,37.8,60,29,22,29.97,29.89,9,1,14,0.00
2014-10-14,66.6,34.3,48.4,56.2,30.4,44.1,86,51,66,29.95,29.87,7,0,10,0.00
2014-10-15,77.1,51.5,57.0,58.1,43.2,50.9,89,56,41,30.01,29.90,3,1,4,0.00
2014-10-16,79.8,52.8,49.1,54.3,39.9,43.5,94,48,36,30.03,29.89,7,2,8,0.00
2014-10-17,74.4,55.7,45.5,49.9,45.2,41.5,87,70,41,30.00,29.92,7,1,9,0.00
2014-10-18,81.6,61.3,48.9,51.7,46.7,44.1,86,62,30,30.00,29.84,3,0,5,0.00
2014-10-19,61.2,54.4,48.4,50.5,48.2,44.8,89,80,67,29.91,29.87,1,0,0,0.00
2014-10-20,55.5,54.7,53.1,54.1,52.8,50.8,95,93,88,29.93,29.90,2,0,0,0.00
2014-10-21,74.8,60.1,52.1,50.9,48.2,40.7,89,68,35,30.08,29.93,5,2,6,0.00
2014-10-22,77.6,62.3,47.5,46.8,43.0,36.7,85,54,25,30.05,29.96,3,1,5,0.00
2014-10-23,80.0,55.1,45.7,47.4,44.0,40.6,86,68,27,30.06,29.95,3,0,6,0.00
2014-10-24,83.3,61.8,44.4,51.9,44.5,34.7,87,59,18,30.00,29.89,11,3,16,0.00
2014-10-25,73.6,58.5,45.1,57.7,49.9,43.5,95,75,49,30.11,30.00,6,1,10,0.00
2014-10-26,72.2,58.3,48.4,52.3,45.9,40.3,93,67,37,30.12,29.98,6,2,9,0.00
2014-10-27,73.2,54.0,40.3,46.1,42.1,37.3,91,69,29,30.05,29.95,3,1,5,0.00
2014-10-28,80.1,57.0,42.7,46.3,43.3,38.8,91,66,26,30.11,30.01,3,1,7,0.00
2014-10-29,86.2,61.7,52.3,44.7,41.3,39.8,64,51,21,30.11,29.96,3,0,5,0.00
2014-10-30,75.4,58.0,50.2,54.2,45.1,38.3,87,63,33,30.00,29.91,8,1,9,0.00
2014-10-31,59.0,57.0,54.9,54.7,52.6,50.7,88,85,82,29.94,29.90,4,1,5,0.00
2014-11-1,60.5,53.0,48.7,52.3,48.6,44.6,95,85,63,30.05,29.77,4,0,1,0.22
2014-11-2,63.1,50.8,42.1,49.8,45.6,40.5,96,83,57,30.18,30.04,2,0,4,0.00
2014-11-3,67.2,52.8,41.0,47.9,44.1,39.7,96,75,46,30.26,30.18,2,0,4,0.01
2014-11-4,69.1,53.6,42.1,49.1,43.7,39.9,93,71,42,30.32,30.20,4,1,7,0.00
2014-11-5,78.7,59.6,45.7,48.9,45.4,40.8,84,62,30,30.25,30.08,2,0,4,0.00
2014-11-6,86.4,60.9,44.5,51.0,46.8,42.0,93,66,26,30.22,30.11,2,0,3,0.00
2014-11-7,79.0,57.1,47.4,52.2,48.0,44.1,91,74,36,30.21,30.06,2,0,4,0.00
2014-11-8,82.4,62.6,48.2,54.0,48.9,43.8,94,66,29,30.12,29.97,2,0,3,0.00
2014-11-9,81.6,61.2,47.4,54.2,48.7,44.9,92,67,34,30.03,29.80,2,0,3,0.00
2014-11-10,67.1,55.4,44.7,53.6,48.9,42.8,94,80,59,29.85,29.79,9,2,12,0.00
2014-11-11,60.6,55.4,53.8,53.5,51.3,50.6,90,86,72,29.95,29.88,5,1,4,0.00
2014-11-12,66.7,52.6,46.4,50.4,47.3,44.2,93,83,54,30.03,29.96,2,0,2,0.00
2014-11-13,68.8,57.7,48.9,59.7,52.8,45.2,92,84,72,30.05,30.00,6,2,9,0.00
2014-11-14,66.5,57.6,51.8,53.8,51.1,45.8,93,80,53,30.10,30.01,4,1,5,0.00
2014-11-15,56.7,49.7,48.0,49.4,48.1,46.6,96,94,71,30.17,30.06,4,2,7,0.00
2014-11-16,60.4,54.0,51.1,42.2,36.9,33.3,57,52,48,30.25,30.19,2,0,0,0.00
2014-11-17,71.7,55.5,41.8,35.9,32.9,28.0,65,44,21,30.23,30.10,3,0,0,0.00
2014-11-18,73.1,55.0,40.1,40.0,35.1,28.7,77,51,22,30.17,30.07,4,0,0,0.00
2014-11-19,67.5,56.4,46.2,54.5,43.9,30.5,94,65,35,30.13,30.06,10,2,0,0.00
2014-11-20,61.3,55.1,49.3,53.5,50.5,48.0,97,85,69,30.13,30.02,4,0,2,0.00
2014-11-21,64.1,50.5,47.7,50.6,47.5,45.2,96,90,55,30.12,30.02,2,0,4,0.01
2014-11-22,70.9,53.6,42.7,55.5,47.2,40.6,94,81,50,30.21,30.10,6,2,11,0.00
2014-11-23,64.6,52.7,42.7,50.6,42.5,36.3,96,71,42,30.31,30.17,7,1,9,0.01
2014-11-24,64.0,48.1,39.1,44.5,39.2,36.5,92,73,45,30.39,30.30,4,0,6,0.00
2014-11-25,70.8,50.0,36.4,44.2,39.7,33.7,93,70,33,30.48,30.33,1,0,4,0.00
2014-11-26,52.0,46.8,38.6,41.2,38.6,34.9,87,74,62,30.35,30.30,0,0,1,0.00
2014-11-27,80.2,61.7,41.2,41.6,37.0,33.6,78,43,19,30.20,30.05,2,0,0,0.00
2014-11-28,77.4,53.1,35.4,41.5,29.7,5.4,89,48,12,30.07,29.90,2,0,0,0.00
2014-11-29,72.4,50.0,31.2,36.6,30.2,20.0,85,52,15,29.93,29.81,8,1,0,0.00
2014-11-30,58.6,50.7,43.5,55.1,42.6,28.7,95,74,54,29.93,29.80,8,1,12,0.45